VXP9561 KLAL-KGSP

Flight info

Callsign VXP9561
Flight time 1h 14m
Altitude 40000
Route NITTS WILON CAMJO MCN SINCA V35 GLOSS CNTLR WORXS2
Aircraft B737/M-SDE2E3FGHIRWXY/LB1

Departure

Time 2026-04-26 18:43
Airport Lakeland Linder International Airport (KLAL)

Arrival

Time 2026-04-26 19:58
Airport Greenville-Spartanburg International Airport (KGSP)
Time Latitude Longitude Altitude Speed Heading
2026-04-26 18:23 27.99385 -82.01438 147 ft 0 kts 359°
2026-04-26 18:34 27.99384 -82.01438 147 ft 1 kts 359°
2026-04-26 18:34 27.99363 -82.01435 147 ft 4 kts 314°
2026-04-26 18:34 27.99359 -82.01430 147 ft 4 kts 295°
2026-04-26 18:34 27.99355 -82.01409 147 ft 0 kts 270°
2026-04-26 18:36 27.99355 -82.01411 147 ft 2 kts 270°
2026-04-26 18:36 27.99353 -82.01459 147 ft 10 kts 256°
2026-04-26 18:37 27.99291 -82.01490 147 ft 11 kts 194°
2026-04-26 18:37 27.99221 -82.01510 147 ft 10 kts 194°
2026-04-26 18:37 27.99152 -82.01529 147 ft 10 kts 190°
2026-04-26 18:37 27.99116 -82.01533 147 ft 0 kts 182°
2026-04-26 18:38 27.99103 -82.01533 147 ft 8 kts 182°
2026-04-26 18:38 27.99042 -82.01515 147 ft 7 kts 109°
2026-04-26 18:39 27.99039 -82.01424 147 ft 18 kts 89°
2026-04-26 18:39 27.99040 -82.01236 148 ft 29 kts 90°
2026-04-26 18:39 27.99041 -82.00996 148 ft 31 kts 89°
2026-04-26 18:39 27.99038 -82.00804 148 ft 18 kts 99°
2026-04-26 18:40 27.99017 -82.00770 148 ft 0 kts 167°
2026-04-26 18:42 27.98999 -82.00766 148 ft 8 kts 172°
2026-04-26 18:42 27.98933 -82.00783 148 ft 8 kts 243°
2026-04-26 18:43 27.98929 -82.00948 147 ft 50 kts 269°
2026-04-26 18:43 27.98929 -82.01628 148 ft 119 kts 269°
2026-04-26 18:43 27.98934 -82.02669 523 ft 138 kts 270°
2026-04-26 18:43 27.98921 -82.03794 1086 ft 146 kts 269°
2026-04-26 18:44 27.98924 -82.04936 1860 ft 144 kts 270°
2026-04-26 18:44 27.98926 -82.06069 2549 ft 148 kts 269°
2026-04-26 18:44 27.98927 -82.07244 3102 ft 149 kts 270°
2026-04-26 18:44 27.99205 -82.08385 3961 ft 166 kts 308°
2026-04-26 18:45 28.00287 -82.09176 4431 ft 207 kts 331°
2026-04-26 18:45 28.01724 -82.09922 4743 ft 248 kts 333°
2026-04-26 18:45 28.03375 -82.10757 5476 ft 265 kts 334°
2026-04-26 18:45 28.05079 -82.11621 6594 ft 270 kts 334°
2026-04-26 18:46 28.06806 -82.12489 7841 ft 276 kts 333°
2026-04-26 18:46 28.08522 -82.13421 9216 ft 274 kts 333°
2026-04-26 18:46 28.10279 -82.14359 10379 ft 283 kts 334°
2026-04-26 18:46 28.12148 -82.15331 11107 ft 309 kts 333°
2026-04-26 18:47 28.14184 -82.16426 11655 ft 334 kts 332°
2026-04-26 18:47 28.16294 -82.17573 11969 ft 336 kts 332°
2026-04-26 18:47 28.18379 -82.18708 12002 ft 332 kts 332°
2026-04-26 18:47 28.20474 -82.19852 12012 ft 336 kts 332°
2026-04-26 18:48 28.22586 -82.21008 12013 ft 336 kts 332°
2026-04-26 18:48 28.24686 -82.22156 12005 ft 334 kts 332°
2026-04-26 18:48 28.26778 -82.23301 12008 ft 334 kts 332°
2026-04-26 18:48 28.28865 -82.24444 12011 ft 333 kts 332°
2026-04-26 18:49 28.30925 -82.25572 12012 ft 334 kts 332°
2026-04-26 18:49 28.33019 -82.26720 12009 ft 334 kts 332°
2026-04-26 18:49 28.35142 -82.27885 12010 ft 334 kts 332°
2026-04-26 18:49 28.37216 -82.29024 12084 ft 339 kts 332°
2026-04-26 18:50 28.39356 -82.30199 13130 ft 342 kts 332°
2026-04-26 18:50 28.41502 -82.31377 14373 ft 343 kts 332°
2026-04-26 18:50 28.43667 -82.32567 15490 ft 349 kts 332°
2026-04-26 18:50 28.45872 -82.33784 16560 ft 355 kts 332°
2026-04-26 18:51 28.48112 -82.35016 17581 ft 361 kts 332°
2026-04-26 18:51 28.50407 -82.36223 18498 ft 368 kts 332°
2026-04-26 18:51 28.52728 -82.37500 19433 ft 373 kts 332°
2026-04-26 18:51 28.55076 -82.38812 20325 ft 379 kts 332°
2026-04-26 18:52 28.57462 -82.40144 21219 ft 385 kts 332°
2026-04-26 18:52 28.59885 -82.41490 22068 ft 390 kts 332°
2026-04-26 18:52 28.62347 -82.42852 22827 ft 397 kts 332°
2026-04-26 18:52 28.64849 -82.44234 23570 ft 402 kts 332°
2026-04-26 18:53 28.67380 -82.45631 24274 ft 407 kts 332°
2026-04-26 18:53 28.69951 -82.47050 24972 ft 413 kts 332°
2026-04-26 18:53 28.72545 -82.48482 25701 ft 416 kts 332°
2026-04-26 18:53 28.75225 -82.49764 26391 ft 421 kts 340°
2026-04-26 18:54 28.78063 -82.50662 27061 ft 425 kts 343°
2026-04-26 18:54 28.80947 -82.51488 27668 ft 430 kts 343°
2026-04-26 18:54 28.83867 -82.52305 28279 ft 433 kts 343°
2026-04-26 18:54 28.86797 -82.53129 28880 ft 435 kts 343°
2026-04-26 18:55 28.89750 -82.53970 29451 ft 439 kts 342°
2026-04-26 18:55 28.92716 -82.54828 29988 ft 442 kts 342°
2026-04-26 18:55 28.95698 -82.55697 30539 ft 443 kts 342°
2026-04-26 18:55 28.98695 -82.56576 31078 ft 445 kts 342°
2026-04-26 18:56 29.01698 -82.57459 31608 ft 446 kts 342°
2026-04-26 18:56 29.04698 -82.58342 32230 ft 443 kts 342°
2026-04-26 18:56 29.07646 -82.59207 33188 ft 432 kts 341°
2026-04-26 18:56 29.10535 -82.60055 33973 ft 425 kts 341°
2026-04-26 18:57 29.13389 -82.60895 34558 ft 423 kts 341°
2026-04-26 18:57 29.15276 -82.61453 34858 ft 423 kts 341°
2026-04-26 18:57 29.19085 -82.62579 35445 ft 422 kts 341°
2026-04-26 18:57 29.21914 -82.63414 36055 ft 417 kts 341°
2026-04-26 18:58 29.24720 -82.64244 36523 ft 416 kts 341°
2026-04-26 18:58 29.27522 -82.65073 36913 ft 416 kts 341°
2026-04-26 18:58 29.30301 -82.65893 37518 ft 409 kts 341°
2026-04-26 18:58 29.33047 -82.66705 38059 ft 406 kts 341°
2026-04-26 18:59 29.35768 -82.67510 38526 ft 402 kts 341°
2026-04-26 18:59 29.38474 -82.68312 38910 ft 401 kts 341°
2026-04-26 18:59 29.41021 -82.69001 39255 ft 402 kts 345°
2026-04-26 18:59 29.42275 -82.69224 39381 ft 405 kts 348°
2026-04-26 19:00 29.45121 -82.69379 39567 ft 413 kts 354°
2026-04-26 19:00 29.48006 -82.69360 39812 ft 415 kts 354°
2026-04-26 19:00 29.50900 -82.69317 39940 ft 419 kts 355°
2026-04-26 19:00 29.53828 -82.69273 39945 ft 421 kts 355°
2026-04-26 19:01 29.59673 -82.69198 39940 ft 417 kts 354°
2026-04-26 19:01 29.65380 -82.69146 39942 ft 412 kts 354°
2026-04-26 19:02 29.71107 -82.69110 39940 ft 411 kts 354°
2026-04-26 19:02 29.75892 -82.69081 39935 ft 410 kts 354°
2026-04-26 19:03 29.82525 -82.69042 39938 ft 410 kts 354°
2026-04-26 19:03 29.88233 -82.69005 39934 ft 410 kts 354°
2026-04-26 19:04 29.93952 -82.68970 39938 ft 411 kts 354°
2026-04-26 19:04 29.99676 -82.68932 39938 ft 411 kts 354°
2026-04-26 19:05 30.08257 -82.68876 39936 ft 411 kts 354°
2026-04-26 19:06 30.13974 -82.68839 39935 ft 411 kts 354°
2026-04-26 19:06 30.19699 -82.68802 39935 ft 411 kts 354°
2026-04-26 19:07 30.25424 -82.68765 39936 ft 411 kts 354°
2026-04-26 19:07 30.31144 -82.68728 39938 ft 411 kts 354°
2026-04-26 19:08 30.36873 -82.68691 39932 ft 412 kts 354°
2026-04-26 19:08 30.42606 -82.68654 39937 ft 412 kts 354°
2026-04-26 19:09 30.48334 -82.68639 39932 ft 410 kts 351°
2026-04-26 19:09 30.53857 -82.69788 39934 ft 399 kts 336°
2026-04-26 19:10 30.59015 -82.72010 39934 ft 398 kts 335°
2026-04-26 19:10 30.64228 -82.74300 39935 ft 398 kts 335°
2026-04-26 19:11 30.69383 -82.76545 39935 ft 398 kts 335°
2026-04-26 19:11 30.74580 -82.78794 39941 ft 399 kts 335°
2026-04-26 19:12 30.79779 -82.81042 39946 ft 399 kts 335°
2026-04-26 19:12 30.84972 -82.83289 39950 ft 398 kts 335°
2026-04-26 19:13 30.90154 -82.85534 39957 ft 397 kts 335°
2026-04-26 19:13 30.95341 -82.87783 39955 ft 398 kts 335°
2026-04-26 19:14 31.00541 -82.90040 39954 ft 399 kts 335°
2026-04-26 19:14 31.05738 -82.92300 39952 ft 399 kts 335°
2026-04-26 19:15 31.10942 -82.94566 39952 ft 399 kts 335°
2026-04-26 19:15 31.16143 -82.96831 39952 ft 399 kts 335°
2026-04-26 19:16 31.21310 -82.99084 39954 ft 399 kts 335°
2026-04-26 19:16 31.26544 -83.01369 39966 ft 399 kts 335°
2026-04-26 19:17 31.31705 -83.03625 39962 ft 399 kts 335°
2026-04-26 19:17 31.36901 -83.05899 39963 ft 399 kts 335°
2026-04-26 19:18 31.42091 -83.08174 39963 ft 398 kts 335°
2026-04-26 19:18 31.47279 -83.10452 39967 ft 398 kts 335°
2026-04-26 19:19 31.52462 -83.12728 39962 ft 398 kts 334°
2026-04-26 19:19 31.57648 -83.15008 39964 ft 398 kts 334°
2026-04-26 19:20 31.61958 -83.16906 39973 ft 398 kts 334°
2026-04-26 19:20 31.67140 -83.19189 39966 ft 398 kts 334°
2026-04-26 19:21 31.72323 -83.21477 39979 ft 398 kts 334°
2026-04-26 19:21 31.77499 -83.23764 39966 ft 397 kts 334°
2026-04-26 19:22 31.82677 -83.26054 39969 ft 397 kts 334°
2026-04-26 19:22 31.87844 -83.28343 39978 ft 397 kts 334°
2026-04-26 19:23 31.93010 -83.30633 39985 ft 396 kts 334°
2026-04-26 19:23 31.98173 -83.32925 39978 ft 396 kts 334°
2026-04-26 19:24 32.03328 -83.35216 39976 ft 396 kts 334°
2026-04-26 19:24 32.11069 -83.38662 39985 ft 396 kts 334°
2026-04-26 19:25 32.15360 -83.40574 39996 ft 397 kts 334°
2026-04-26 19:25 32.21404 -83.43273 39963 ft 397 kts 334°
2026-04-26 19:26 32.26574 -83.45585 39966 ft 397 kts 334°
2026-04-26 19:26 32.31743 -83.47898 39959 ft 397 kts 334°
2026-04-26 19:27 32.36917 -83.50217 39967 ft 398 kts 334°
2026-04-26 19:27 32.42065 -83.52524 39956 ft 398 kts 334°
2026-04-26 19:28 32.47248 -83.54852 39943 ft 398 kts 334°
2026-04-26 19:28 32.52425 -83.57179 39940 ft 398 kts 334°
2026-04-26 19:29 32.57600 -83.59511 39944 ft 398 kts 334°
2026-04-26 19:29 32.62768 -83.61840 39938 ft 398 kts 334°
2026-04-26 19:30 32.68050 -83.63839 39953 ft 403 kts 343°
2026-04-26 19:30 32.72732 -83.64356 39944 ft 413 kts 355°
2026-04-26 19:31 32.79474 -83.63665 39952 ft 417 kts 358°
2026-04-26 19:31 32.85245 -83.62985 39956 ft 417 kts 358°
2026-04-26 19:32 32.91024 -83.62344 39950 ft 417 kts 358°
2026-04-26 19:32 32.96812 -83.61719 39956 ft 418 kts 358°
2026-04-26 19:33 33.02604 -83.61095 39947 ft 418 kts 358°
2026-04-26 19:33 33.08396 -83.60398 39950 ft 422 kts
2026-04-26 19:34 33.14142 -83.58654 39953 ft 428 kts
2026-04-26 19:34 33.19843 -83.56758 39961 ft 428 kts
2026-04-26 19:35 33.25586 -83.54887 39962 ft 428 kts
2026-04-26 19:35 33.31333 -83.53037 39963 ft 428 kts
2026-04-26 19:36 33.36150 -83.51486 39966 ft 428 kts
2026-04-26 19:36 33.42900 -83.50383 39982 ft 413 kts 351°
2026-04-26 19:37 33.48417 -83.51544 39991 ft 402 kts 338°
2026-04-26 19:37 33.53765 -83.53502 39985 ft 402 kts 338°
2026-04-26 19:38 33.59127 -83.55400 39985 ft 403 kts 340°
2026-04-26 19:38 33.61945 -83.55785 39994 ft 415 kts 356°
2026-04-26 19:38 33.64827 -83.55191 39989 ft 429 kts 11°
2026-04-26 19:39 33.67582 -83.53676 39992 ft 444 kts 25°
2026-04-26 19:39 33.70014 -83.51317 39968 ft 461 kts 41°
2026-04-26 19:39 33.73556 -83.44720 39898 ft 476 kts 53°
2026-04-26 19:40 33.75183 -83.41220 39216 ft 482 kts 54°
2026-04-26 19:40 33.76805 -83.37719 38514 ft 478 kts 53°
2026-04-26 19:40 33.78442 -83.34257 37738 ft 476 kts 53°
2026-04-26 19:40 33.80100 -83.30817 36935 ft 474 kts 52°
2026-04-26 19:41 33.81765 -83.27396 36092 ft 474 kts 52°
2026-04-26 19:41 33.83432 -83.23972 35150 ft 476 kts 52°
2026-04-26 19:41 33.85169 -83.20586 34075 ft 477 kts 50°
2026-04-26 19:41 33.86376 -83.18368 33369 ft 479 kts 49°
2026-04-26 19:42 33.88843 -83.13939 31865 ft 483 kts 50°
2026-04-26 19:42 33.90734 -83.10525 30870 ft 482 kts 50°
2026-04-26 19:42 33.92543 -83.07212 30017 ft 477 kts 51°
2026-04-26 19:42 33.94344 -83.03885 29158 ft 472 kts 51°
2026-04-26 19:43 33.96123 -83.00596 28296 ft 466 kts 51°
2026-04-26 19:43 33.98145 -82.97633 27400 ft 452 kts 36°
2026-04-26 19:43 34.00584 -82.95332 26570 ft 441 kts 31°
2026-04-26 19:43 34.03055 -82.93175 25709 ft 435 kts 30°
2026-04-26 19:44 34.05489 -82.91067 24841 ft 429 kts 31°
2026-04-26 19:44 34.07886 -82.88965 23998 ft 423 kts 31°
2026-04-26 19:44 34.10253 -82.86863 22897 ft 423 kts 32°
2026-04-26 19:44 34.12604 -82.84754 21945 ft 419 kts 32°
2026-04-26 19:45 34.14925 -82.82659 21046 ft 413 kts 32°
2026-04-26 19:45 34.17208 -82.80590 20176 ft 407 kts 33°
2026-04-26 19:45 34.19456 -82.78552 19300 ft 401 kts 33°
2026-04-26 19:45 34.21670 -82.76542 18428 ft 395 kts 33°
2026-04-26 19:46 34.23853 -82.74563 17584 ft 389 kts 33°
2026-04-26 19:46 34.25999 -82.72614 16754 ft 383 kts 34°
2026-04-26 19:46 34.28117 -82.70692 15916 ft 378 kts 34°
2026-04-26 19:46 34.30206 -82.68794 15090 ft 373 kts 34°
2026-04-26 19:47 34.32262 -82.66925 14262 ft 368 kts 35°
2026-04-26 19:47 34.33611 -82.65699 13717 ft 364 kts 35°
2026-04-26 19:47 34.36289 -82.63255 12532 ft 359 kts 36°
2026-04-26 19:47 34.38270 -82.61437 11687 ft 355 kts 36°
2026-04-26 19:48 34.40219 -82.59643 10886 ft 349 kts 37°
2026-04-26 19:48 34.42132 -82.57880 10363 ft 337 kts 37°
2026-04-26 19:48 34.43930 -82.56221 10217 ft 315 kts 37°
2026-04-26 19:48 34.45620 -82.54663 10077 ft 296 kts 37°
2026-04-26 19:49 34.47213 -82.53192 9966 ft 279 kts 37°
2026-04-26 19:49 34.48749 -82.51775 9439 ft 279 kts 37°
2026-04-26 19:49 34.50283 -82.50359 8976 ft 276 kts 37°
2026-04-26 19:49 34.51805 -82.48955 8514 ft 274 kts 37°
2026-04-26 19:50 34.53314 -82.47561 8064 ft 272 kts 37°
2026-04-26 19:50 34.54809 -82.46179 7607 ft 270 kts 37°
2026-04-26 19:50 34.56300 -82.44803 7150 ft 268 kts 37°
2026-04-26 19:50 34.57851 -82.43612 6675 ft 267 kts 27°
2026-04-26 19:51 34.59513 -82.42614 6225 ft 266 kts 26°
2026-04-26 19:51 34.61185 -82.41650 5786 ft 264 kts 25°
2026-04-26 19:51 34.62817 -82.40700 5336 ft 263 kts 26°
2026-04-26 19:51 34.64464 -82.39730 4868 ft 263 kts 26°
2026-04-26 19:52 34.66094 -82.38756 4560 ft 256 kts 26°
2026-04-26 19:52 34.67650 -82.37816 4432 ft 244 kts 27°
2026-04-26 19:52 34.69138 -82.36914 4297 ft 236 kts 27°
2026-04-26 19:52 34.70610 -82.36021 4170 ft 237 kts 27°
2026-04-26 19:53 34.72086 -82.35125 4041 ft 230 kts 26°
2026-04-26 19:53 34.73460 -82.34229 3925 ft 217 kts 30°
2026-04-26 19:53 34.74686 -82.33323 3797 ft 202 kts 32°
2026-04-26 19:53 34.75838 -82.32441 3649 ft 190 kts 32°
2026-04-26 19:54 34.76951 -82.31582 3541 ft 192 kts 32°
2026-04-26 19:54 34.78073 -82.30719 3304 ft 188 kts 33°
2026-04-26 19:54 34.79179 -82.29868 3038 ft 180 kts 33°
2026-04-26 19:54 34.80199 -82.29083 2821 ft 167 kts 33°
2026-04-26 19:55 34.81150 -82.28350 2612 ft 156 kts 32°
2026-04-26 19:55 34.82024 -82.27680 2413 ft 145 kts 32°
2026-04-26 19:55 34.82836 -82.27056 2264 ft 129 kts 32°
2026-04-26 19:55 34.83575 -82.26488 2066 ft 123 kts 32°
2026-04-26 19:56 34.84301 -82.25928 1907 ft 121 kts 32°
2026-04-26 19:56 34.84992 -82.25397 1738 ft 114 kts 33°
2026-04-26 19:56 34.85654 -82.24888 1609 ft 113 kts 33°
2026-04-26 19:56 34.86348 -82.24361 1458 ft 121 kts 32°
2026-04-26 19:57 34.87053 -82.23815 1294 ft 117 kts 33°
2026-04-26 19:57 34.87723 -82.23291 1110 ft 113 kts 32°
2026-04-26 19:57 34.88376 -82.22795 984 ft 110 kts 32°
2026-04-26 19:57 34.88968 -82.22342 960 ft 84 kts 32°
2026-04-26 19:58 34.89313 -82.22081 958 ft 21 kts 32°
2026-04-26 19:58 34.89424 -82.21970 961 ft 20 kts 51°
2026-04-26 19:58 34.89499 -82.21830 959 ft 19 kts 62°
2026-04-26 19:58 34.89522 -82.21729 957 ft 11 kts 128°
2026-04-26 19:59 34.89448 -82.21740 958 ft 14 kts 210°
2026-04-26 19:59 34.89360 -82.21807 959 ft 15 kts 213°
2026-04-26 19:59 34.89263 -82.21883 960 ft 19 kts 212°
2026-04-26 19:59 34.89140 -82.21975 956 ft 22 kts 212°
2026-04-26 20:00 34.89051 -82.22043 958 ft 12 kts 200°
2026-04-26 20:00 34.88980 -82.21999 958 ft 12 kts 158°
2026-04-26 20:00 34.88904 -82.21966 955 ft 11 kts 154°
2026-04-26 20:00 34.88850 -82.21901 958 ft 11 kts 116°
2026-04-26 20:01 34.88846 -82.21814 959 ft 10 kts 72°
2026-04-26 20:01 34.88878 -82.21768 959 ft 0 kts 34°
2026-04-26 20:01 34.88901 -82.21753 959 ft 6 kts
2026-04-26 20:02 34.88933 -82.21778 959 ft 1 kts 319°
2026-04-26 20:02 34.88936 -82.21781 958 ft 0 kts 319°